カタログに戻る

SL-8 DEB

運用中LEO
NORAD 5052·DEBRIS·🇷🇺 Russia

打ち上げ Mar 18, 1971 から Plesetsk Cosmodrome

Loading…

次のパス (今後24時間)

TLE

最新Source: Space-Track

元期: Sep 14, 2026, 13:01 UTC

1 05052U 71020C   26257.54289649 -.00000051  00000-0  31214-4 0  9993
2 05052  65.8188 271.0556 0005953 244.8575 196.8769 13.73653886781487

AllMySatでSL-8 DEBをリアルタイム追跡

Download on the App Store